Terminal Aerodrome Forecast
Issued by NWS Greer, SC

Home | Current Version | Previous Version | Text Only | Print | Product List | Glossary On
Versions: 1 2 3 4 5 6 7 8 9 10 11 12 13 14 15 16 17 18 19 20 21 22 23 24 25 26 27 28 29 30 31 32 33 34 35 36 37 38 39 40 41 42
000
FTUS42 KGSP 231700
TAFCLT
TAF
KCLT 231727Z 2318/2418 04010KT P6SM VCSH SCT035 BKN060
      TEMPO 2318/2322 -SHRA
     FM232300 03008KT P6SM FEW040 BKN120
     FM241600 03010KT P6SM BKN035=

USA.gov is the U.S. government's official web portal to all federal, state and local government web resources and services.